When you browse on this site, cookies collect data to enhance your experience and personalize the content and advertising you see.
Visit our Privacy Policy to learn more. By continuing to use the site, you agree to this use of cookies and data.
  • In Hungary
  • List of Countries
  • For 7 days
  • Water Temperature
  • Satellite Maps
  • Weather Map
  • News
  • Weather Widgets
  • user-avatar
    Login

    Hourly Weather Łańcut

    Today, 26 March, Tuesday

    Time Temperature Precipitation Wind Pressure Humidity
    00:00 +1°C° 0 mm 4 mps 740 mmHg 79%
    01:00 +1°C° 0 mm 4 mps 740 mmHg 82%
    02:00 0°C° 0 mm 4 mps 741 mmHg 84%
    03:00 0°C° 0 mm 4 mps 741 mmHg 86%
    04:00 -1°C° 0 mm 4 mps 741 mmHg 89%
    05:00 0°C° 0 mm 4 mps 742 mmHg 87%
    06:00 0°C° 0 mm 4 mps 742 mmHg 85%
    07:00 0°C° 0 mm 4 mps 742 mmHg 83%
    08:00 +1°C° 0 mm 5 mps 743 mmHg 77%
    09:00 +2°C° 0 mm 5 mps 743 mmHg 70%
    10:00 +3°C° 0 mm 6 mps 743 mmHg 63%
    11:00 +4°C° 0 mm 6 mps 743 mmHg 59%
    12:00 +4°C° 0 mm 6 mps 743 mmHg 56%
    13:00 +5°C° 0 mm 6 mps 742 mmHg 53%
    14:00 +5°C° 0.1 mm 7 mps 742 mmHg 55%
    15:00 +4°C° 0.1 mm 7 mps 741 mmHg 57%
    16:00 +4°C° 0.1 mm 8 mps 741 mmHg 59%
    17:00 +4°C° 0.3 mm 8 mps 741 mmHg 62%
    18:00 +2°C° 0.3 mm 8 mps 741 mmHg 64%
    19:00 +1°C° 0.3 mm 9 mps 741 mmHg 66%
    20:00 0°C° 0.4 mm 8 mps 742 mmHg 66%
    21:00 -1°C° 0.4 mm 7 mps 742 mmHg 65%
    22:00 -2°C° 0.4 mm 6 mps 743 mmHg 65%
    23:00 -2°C° 0 mm 6 mps 743 mmHg 67%

    Tomorrow, 27 March, Wednesday

    Time Temperature Precipitation Wind Pressure Humidity
    00:00 -3°C° 0 mm 6 mps 744 mmHg 70%
    01:00 -4°C° 0 mm 5 mps 744 mmHg 72%
    02:00 -4°C° 0 mm 5 mps 745 mmHg 75%
    03:00 -4°C° 0 mm 5 mps 745 mmHg 77%
    04:00 -4°C° 0 mm 5 mps 746 mmHg 79%
    05:00 -4°C° 0 mm 5 mps 746 mmHg 78%
    06:00 -2°C° 0 mm 5 mps 747 mmHg 77%
    07:00 -2°C° 0 mm 5 mps 748 mmHg 76%
    08:00 -1°C° 0 mm 5 mps 748 mmHg 71%
    09:00 +1°C° 0 mm 5 mps 748 mmHg 66%
    10:00 +2°C° 0 mm 5 mps 749 mmHg 61%
    11:00 +3°C° 0 mm 5 mps 749 mmHg 55%
    12:00 +5°C° 0 mm 5 mps 749 mmHg 50%
    13:00 +6°C° 0 mm 5 mps 749 mmHg 44%
    14:00 +6°C° 0 mm 4 mps 748 mmHg 44%
    15:00 +6°C° 0 mm 4 mps 748 mmHg 43%
    16:00 +6°C° 0 mm 4 mps 748 mmHg 43%
    17:00 +5°C° 0 mm 3 mps 748 mmHg 49%
    18:00 +4°C° 0 mm 3 mps 748 mmHg 55%
    19:00 +3°C° 0 mm 2 mps 749 mmHg 61%
    20:00 +4°C° 0.1 mm 2 mps 749 mmHg 64%
    21:00 +4°C° 0.1 mm 2 mps 749 mmHg 68%
    22:00 +4°C° 0.1 mm 2 mps 749 mmHg 71%
    23:00 +3°C° 0.1 mm 3 mps 749 mmHg 76%

    Day after tomorrow, 28 March, Thursday

    Time Temperature Precipitation Wind Pressure Humidity
    00:00 +3°C° 0.1 mm 3 mps 749 mmHg 81%
    01:00 +3°C° 0.1 mm 3 mps 749 mmHg 86%
    02:00 +3°C° 0.4 mm 3 mps 749 mmHg 88%
    03:00 +3°C° 0.4 mm 3 mps 749 mmHg 90%
    04:00 +3°C° 0.4 mm 3 mps 749 mmHg 93%
    05:00 +4°C° 0.4 mm 4 mps 749 mmHg 92%
    06:00 +4°C° 0.4 mm 4 mps 749 mmHg 92%
    07:00 +5°C° 0.4 mm 4 mps 749 mmHg 91%
    08:00 +5°C° 0.1 mm 4 mps 749 mmHg 88%
    09:00 +7°C° 0.1 mm 3 mps 750 mmHg 86%
    10:00 +7°C° 0.1 mm 3 mps 750 mmHg 83%
    11:00 +8°C° 0.2 mm 3 mps 750 mmHg 79%
    12:00 +8°C° 0.2 mm 2 mps 750 mmHg 75%
    13:00 +9°C° 0.2 mm 2 mps 750 mmHg 71%
    14:00 +9°C° 0.2 mm 2 mps 750 mmHg 69%
    15:00 +10°C° 0.2 mm 1 mps 750 mmHg 67%
    16:00 +10°C° 0.2 mm 1 mps 751 mmHg 65%
    17:00 +9°C° 0 mm 1 mps 751 mmHg 70%
    18:00 +8°C° 0 mm 1 mps 751 mmHg 75%
    19:00 +7°C° 0 mm 1 mps 752 mmHg 81%
    20:00 +7°C° 0 mm 1 mps 752 mmHg 83%
    21:00 +6°C° 0 mm 1 mps 752 mmHg 85%
    22:00 +6°C° 0 mm 1 mps 753 mmHg 88%
    23:00 +5°C° 0 mm 1 mps 753 mmHg 89%

    29 March, Friday

    Time Temperature Precipitation Wind Pressure Humidity
    00:00 +5°C° 0 mm 1 mps 753 mmHg 90%
    01:00 +5°C° 0 mm 1 mps 753 mmHg 92%
    02:00 +3°C° 0 mm 2 mps 753 mmHg 93%
    03:00 +3°C° 0 mm 2 mps 753 mmHg 94%
    04:00 +3°C° 0 mm 2 mps 753 mmHg 95%
    05:00 +2°C° 0 mm 3 mps 753 mmHg 93%
    06:00 +3°C° 0 mm 3 mps 753 mmHg 90%
    07:00 +4°C° 0 mm 4 mps 753 mmHg 87%
    08:00 +5°C° 0 mm 4 mps 752 mmHg 81%
    09:00 +7°C° 0 mm 4 mps 752 mmHg 75%
    10:00 +9°C° 0 mm 5 mps 752 mmHg 69%
    11:00 +9°C° 0 mm 5 mps 752 mmHg 70%
    12:00 +10°C° 0 mm 5 mps 752 mmHg 71%
    13:00 +10°C° 0 mm 5 mps 751 mmHg 72%
    14:00 +10°C° 0 mm 5 mps 751 mmHg 74%
    15:00 +9°C° 0 mm 5 mps 751 mmHg 77%
    16:00 +9°C° 0 mm 5 mps 751 mmHg 79%
    17:00 +10°C° 0 mm 4 mps 751 mmHg 81%
    18:00 +8°C° 0 mm 4 mps 751 mmHg 83%
    19:00 +9°C° 0 mm 3 mps 751 mmHg 85%
    20:00 +8°C° 0 mm 3 mps 751 mmHg 88%
    21:00 +8°C° 0 mm 3 mps 751 mmHg 90%
    22:00 +7°C° 0 mm 2 mps 751 mmHg 92%
    23:00 +7°C° 0 mm 2 mps 751 mmHg 93%

    30 March, Saturday

    Time Temperature Precipitation Wind Pressure Humidity
    00:00 +7°C° 0 mm 3 mps 751 mmHg 94%
    01:00 +5°C° 0 mm 3 mps 750 mmHg 95%
    02:00 +5°C° 0 mm 3 mps 750 mmHg 95%
    03:00 +5°C° 0 mm 3 mps 750 mmHg 95%
    04:00 +5°C° 0 mm 2 mps 750 mmHg 96%
    05:00 +5°C° 0 mm 3 mps 750 mmHg 93%
    06:00 +7°C° 0 mm 3 mps 750 mmHg 91%
    07:00 +8°C° 0 mm 3 mps 750 mmHg 89%
    08:00 +10°C° 0 mm 3 mps 749 mmHg 82%
    09:00 +11°C° 0 mm 4 mps 749 mmHg 75%
    10:00 +13°C° 0 mm 4 mps 749 mmHg 68%
    11:00 +14°C° 0 mm 4 mps 748 mmHg 64%
    12:00 +15°C° 0 mm 4 mps 748 mmHg 60%
    13:00 +17°C° 0 mm 4 mps 747 mmHg 55%
    14:00 +17°C° 0 mm 4 mps 747 mmHg 55%
    15:00 +17°C° 0 mm 3 mps 746 mmHg 55%
    16:00 +17°C° 0 mm 3 mps 745 mmHg 54%
    17:00 +14°C° 0 mm 3 mps 745 mmHg 60%
    18:00 +14°C° 0 mm 2 mps 745 mmHg 65%
    19:00 +12°C° 0 mm 2 mps 745 mmHg 71%
    20:00 +12°C° 0 mm 2 mps 744 mmHg 72%
    21:00 +10°C° 0 mm 2 mps 744 mmHg 74%
    22:00 +9°C° 0 mm 2 mps 744 mmHg 76%
    23:00 +9°C° 0 mm 2 mps 744 mmHg 77%

    31 March, Sunday

    Time Temperature Precipitation Wind Pressure Humidity
    00:00 +9°C° 0 mm 2 mps 743 mmHg 79%
    01:00 +8°C° 0 mm 2 mps 743 mmHg 81%
    02:00 +8°C° 0 mm 2 mps 742 mmHg 81%
    03:00 +8°C° 0 mm 2 mps 742 mmHg 82%
    04:00 +8°C° 0 mm 2 mps 741 mmHg 83%
    05:00 +8°C° 0 mm 3 mps 741 mmHg 80%
    06:00 +9°C° 0 mm 3 mps 741 mmHg 78%
    07:00 +10°C° 0 mm 4 mps 741 mmHg 76%
    08:00 +11°C° 0.1 mm 4 mps 741 mmHg 74%
    09:00 +12°C° 0.1 mm 5 mps 742 mmHg 72%
    10:00 +13°C° 0.1 mm 5 mps 742 mmHg 70%
    11:00 +10°C° 0.6 mm 6 mps 742 mmHg 72%
    12:00 +8°C° 0.6 mm 6 mps 743 mmHg 73%
    13:00 +5°C° 0.6 mm 7 mps 743 mmHg 74%
    14:00 +5°C° 0 mm 7 mps 743 mmHg 67%
    15:00 +5°C° 0 mm 7 mps 744 mmHg 61%
    16:00 +5°C° 0 mm 7 mps 745 mmHg 54%
    17:00 +4°C° 0 mm 6 mps 745 mmHg 57%
    18:00 +3°C° 0 mm 5 mps 746 mmHg 60%
    19:00 +3°C° 0 mm 4 mps 746 mmHg 63%
    20:00 +1°C° 0 mm 4 mps 747 mmHg 61%
    21:00 0°C° 0 mm 4 mps 747 mmHg 60%
    22:00 0°C° 0 mm 4 mps 748 mmHg 59%
    23:00 -1°C° 0 mm 4 mps 748 mmHg 61%
    Show more